Regional Weather Roundup
Issued by NWS

Home | Current Version | Previous Version | Graphics & Text | Print | Product List | Glossary On
Versions: 1 2 3 4 5 6 7 8 9 10 11 12 13 14 15 16 17 18 19 20 21 22 23 24 25 26 27 28 29 30 31 32 33 34 35 36 37 38 39 40 41 42 43 44 45 46 47 48 49 50
362
ASUS45 KBOU 022307
RWRCO

WEATHER ROUNDUP FOR COLORADO
NATIONAL WEATHER SERVICE DENVER/BOULDER CO
500 PM MDT MON MAY 02 2016

NOTE: "FAIR" INDICATES FEW OR NO CLOUDS BELOW 12000 FEET WITH NO
SIGNIFICANT WEATHER AND/OR OBSTRUCTIONS TO VISIBILITY.

COZ001>005-013-030-031-030000-
...NORTHWEST COLORADO...

CITY           SKY/WX    TMP DP  RH WIND       PRES   REMARKS
CRAIG          FAIR      59  24  26 W13       30.17F
HAYDEN         FAIR      57  23  26 W8        30.18S
MEEKER         FAIR      60  24  25 W9        30.17F
MOUNT WERNER   NOT AVBL
STEAMBOAT SPGS FAIR      56  25  30 W10       30.18S
WALDEN         FAIR      52  21  30 NW7G20    30.21S
$$

COZ006>008-011-030000-
...WEST CENTRAL VALLEYS...

CITY           SKY/WX    TMP DP  RH WIND       PRES   REMARKS
GRAND JUNCTION FAIR      64  31  28 W7        30.12F
MONTROSE       FAIR      62  28  27 N12       30.15F
EAGLE          MOSUNNY   61  23  23 NW10      30.14F
RIFLE          FAIR      64  25  22 VRB5      30.12F
DELTA          NOT AVBL
NUCLA          NOT AVBL
$$

COZ017>023-064>068-030000-
...SOUTHWEST COLORADO...

CITY           SKY/WX    TMP DP  RH WIND       PRES   REMARKS
DURANGO        FAIR      56  33  42 SW12G20   30.17F
CORTEZ         FAIR      56  35  45 SW5       30.17F
PAGOSA SPRINGS NOT AVBL
TELLURIDE      NOT AVBL
WOLF CREEK PAS PTSUNNY   30  30 100 SW9       30.34S WCI  22
$$

COZ009-010-012-014-032>034-037-058>063-030000-
...CENTRAL COLORADO...

CITY           SKY/WX    TMP DP  RH WIND       PRES   REMARKS
ASPEN          PTSUNNY   54  22  28 N14G20    30.17S
BUENA VISTA    NOT AVBL
COPPER MTN     NOT AVBL
BERTHOUD PASS  PTSUNNY   23  14  68 NW22G35   30.30S HAZE    WCI   8
COTTONWOOD PAS FAIR      48  18  29 CALM      30.23S
GUNNISON       FAIR      54  25  32 W13G20    30.19F
KREMMLING      FAIR      55  19  24 N13G18    30.19S
LEADVILLE      FAIR      41  15  35 N15       30.22S
MONARCH PASS   CLOUDY    28  27  93 MISG      30.43R
SALIDA         NOT AVBL
SUNLIGHT       FAIR      41  28  60 NW3       30.34S
WILKERSON PASS FAIR      37  21  52 W5        30.30S
$$

COZ069>075-030000-
...SAN LUIS VALLEY/SANGRE DE CRISTO MOUNTAINS...

CITY           SKY/WX    TMP DP  RH WIND       PRES   REMARKS
ALAMOSA        PTSUNNY   53  27  36 MISG      30.16F
LA VETA PASS   FAIR      43  28  56 CALM      30.26S
SAGUACHE       CLOUDY    54  28  37 S8        30.16S
$$

COZ035-036-038>040-030000-
...NORTHERN COLORADO FRONT RANGE...

CITY           SKY/WX    TMP DP  RH WIND       PRES   REMARKS
DENVER INTL AP FAIR      59  24  26 VRB7      30.11F
DMNS CITY PARK   N/A     59  23  25 NE8G17    30.11S
AURORA         FAIR      58  24  26 NE5       30.12F
FRONT RANGE AP MOSUNNY   55  23  28 N9        30.12F
ERIE MUNI ARPT FAIR      60  27  28 CALM      30.10F
BOULDER MUN AP FAIR      59  28  31 E6        30.10F
CENTENNIAL     FAIR      55  25  31 CALM      30.12F
BROOMFIELD     NOT AVBL
FORT COLLINS   FAIR      61  30  31 S6        30.10F
LONGMONT       FAIR      63  28  26 S5        30.11F
$$

COZ041-046-047-076>085-087-088-030000-
...PIKES PEAK/PALMER DIVIDE AND SOUTHERN FOOTHILLS...

CITY           SKY/WX    TMP DP  RH WIND       PRES   REMARKS
COLO. SPRINGS  FAIR      59   5  11 VRB3      30.14F
A. F. ACADEMY  FAIR      54  14  20 VRB2      30.13F
SCHRIEVER AFB  NOT AVBL
ELLICOTT       MIX PCPN N/A N/A N/A VRB5      30.13F
FALCON         FAIR      55   9  16 E7        30.17F
FORT CARSON    FAIR      57  23  26 VRB6      30.12F
LIMON          FAIR      51  18  27 W6        30.13F
MONUMENT HILL  FAIR      46  18  31 MISG      30.17F
TRINIDAD       FAIR      58  33  39 N8        30.13F
$$

COZ042>045-048>051-090-091-030000-
...NORTHEAST COLORADO...

CITY           SKY/WX    TMP DP  RH WIND       PRES   REMARKS
GREELEY ARPT   FAIR      61  27  27 W6        30.09F
AKRON          FAIR      56  24  29 W8        30.09F
BURLINGTON     FAIR      59  19  21 NW10      30.10F
WRAY           NOT AVBL
STERLING       FAIR      64  27  24 N15       30.04F
HOLYOKE        NOT AVBL
FORT MORGAN    NOT AVBL
$$

COZ086-089-092>099-030000-
...SOUTHEAST COLORADO...

CITY           SKY/WX    TMP DP  RH WIND       PRES   REMARKS
PUEBLO         FAIR      62  29  28 E6        30.11F
LA JUNTA       FAIR      59  28  30 SW3       30.11F
LAMAR          FAIR      63  27  25 SW5       30.08F
SPRINGFIELD      N/A     59  33  37 N12       30.12F
$$




USA.gov is the U.S. government's official web portal to all federal, state and local government web resources and services.